Regional Weather Roundup
Issued by NWS

Home | Current Version | Previous Version | Text Only | Print | Product List | Glossary On
Versions: 1 2 3 4 5 6 7 8 9 10 11 12 13 14 15 16 17 18 19 20 21 22 23 24 25 26 27 28 29 30 31 32 33 34 35 36 37 38 39 40 41 42 43 44 45 46 47 48 49 50
000
ASUS46 KSTO 090304
RWRCA

NORTHERN AND CENTRAL CA REGIONAL WEATHER ROUNDUP
NATIONAL WEATHER SERVICE SACRAMENTO CA
700 PM PST THU DEC 08 2016

NOTE: FAIR INDICATES FEW OR NO CLOUDS BELOW 12,000 FEET WITH NO
SIGNIFICANT WEATHER AND/OR OBSTRUCTIONS TO VISIBILITY.

CAZ001-003-090400-
NORTHWEST AREA

CITY           SKY/WX    TMP DP  RH WIND       PRES   REMARKS
CRESCENT CITY  CLOUDY    54  54 100 S16       30.01R FOG
UKIAH          LGT RAIN  48  48 100 CALM      30.14R FOG
$$

CAZ006-505>513-090400-
BAY AREA

CITY           SKY/WX    TMP DP  RH WIND       PRES   REMARKS
SANTA ROSA     LGT RAIN  51  51 100 CALM      30.13R FOG
SAN RAFAEL     N/A       52  MM  MM MISG
NAPA           CLOUDY    55  51  86 E10       30.16R FOG
CONCORD        LGT RAIN  52  49  89 N5        30.17R VSB 1
OAKLAND CITY   N/A       59  MM  MM MISG
OAKLAND        LGT RAIN  58  56  93 S7        30.15R FOG
SAN FRAN CITY  N/A       58  MM 100 MISG
SAN FRAN ARPT  LGT RAIN  58  56  93 CALM      30.14S
LIVERMORE      LGT RAIN  57  53  86 SE3       30.14R FOG
HAYWARD        LGT RAIN  59  53  80 S3        30.14R
REDWOOD CITY   N/A       MM  MM  MM MISG
MOFFETT ARPT   MOCLDY    59  54  83 SE9       30.15R
SAN JOSE ARPT  MOCLDY    59  54  83 SE17      30.14R
$$
CAZ034-037-514>518-090400-
CENTRAL COAST

CITY           SKY/WX    TMP DP  RH WIND       PRES   REMARKS
WATSONVILLE    LGT RAIN  56  56 100 CALM      30.18S FOG
SALINAS        CLOUDY    59  55  87 SE18      30.16R
MONTEREY       CLOUDY    59  57  93 CALM      30.17R
SAN LUIS OBISP CLOUDY    59  58  96 SE5       30.24R FOG
SANTA MARIA    CLOUDY    58  58 100 SE5       30.25R FOG
$$
CAZ015-016-090400-
NORTHERN SACRAMENTO VALLEY

CITY           SKY/WX    TMP DP  RH WIND       PRES   REMARKS
REDDING        CLOUDY    43  42  97 CALM      30.18S FOG
RED BLUFF      CLOUDY    42  41  96 NW6       30.19R FOG
OROVILLE       CLOUDY    46  45  96 CALM      30.19S FOG
$$
CAZ016>018-090400-
SOUTHERN SACRAMENTO VALLEY

CITY           SKY/WX    TMP DP  RH WIND       PRES   REMARKS
AUBURN         CLOUDY    52  52 100 S6        30.18R VSB 1/4
BEALE AFB      CLOUDY    46  46 100 CALM      30.17R FOG
LINCOLN        CLOUDY    43  41  93 CALM      30.17R
MARYSVILLE     CLOUDY    45  44  97 NW3       30.19R FOG
PLACERVILLE    CLOUDY    50  50 100 S10       30.20R
SAC INTL ARPT  CLOUDY    44  44 100 NW3       30.18R
MATHER AIRPORT CLOUDY    54  52  94 S7        30.19R
DOWNTOWN SAC   N/A       54  MM  MM MISG
SAC EXEC ARPT  CLOUDY    49  49 100 NW3       30.19R FOG
VACAVILLE      CLOUDY    48  48 100 N5        30.19R FOG
TRAVIS AFB     CLOUDY    47  47  97 N8        30.16R FOG
$$
CAZ019>021-090400-
SAN JOAQUIN VALLEY

CITY           SKY/WX    TMP DP  RH WIND       PRES   REMARKS
STOCKTON       LGT RAIN  54  53  97 SE15      30.17S
MODESTO        MOCLDY    55  51  86 SE7       30.20R
MERCED         MOCLDY    54  51  90 E8        30.20S
LEMOORE        CLOUDY    56  54  93 SE8       30.23R
FRESNO         CLOUDY    55  53  93 E5        30.23S
HANFORD        CLOUDY    56  56 100 SE3       30.23S
PORTERVILLE    MOCLDY    56  54  93 E5        30.23S
BAKERSFIELD    CLOUDY    60  53  77 E3        30.23R
$$
CAZ011-012-071-090400-
NORTHERN MOUNTAINS

CITY           SKY/WX    TMP DP  RH WIND       PRES   REMARKS
YREKA          MOCLDY    40  34  79 W6        30.00R
MOUNT SHASTA   CLOUDY    39  34  82 VRB5      30.10R
ALTURAS        CLOUDY    34  32  92 SW8       30.06R WCI  27
$$
CAZ011-012-071-090400-
SIERRA NEVADA MTNS

CITY           SKY/WX    TMP DP  RH WIND       PRES   REMARKS
BLUE CANYON    LGT RAIN  43  42  97 S18G29    30.20R VSB 1/4
TRUCKEE        CLOUDY    41  34  75 SE14G23   30.15S
TAHOE VLY ARPT CLOUDY    43  33  68 S12G32    30.16R
MAMMOTH LAKES  FAIR      46  22  39 SW5       30.20S
$$



USA.gov is the U.S. government's official web portal to all federal, state and local government web resources and services.